Location: Saratoga Springs
(43.0831°N, 73.7850°W)
Time: 12:16:42
(UTC-04:00)

Vanguard 1 Rocket - Pass Details

Date: 19 April 2024
Orbit: 651 x 4220 km, 34.3° (Epoch: 19 May)

Event Time Altitude Azimuth Distance (km) Brightness Sun altitude
Rises 00:12:00 0° 270° (W) 4,254 11.0 -34.7°
Reaches altitude 10° 00:14:32 10° 262° (W) 3,606 10.5 -34.8°
Enters shadow 00:18:18 27° 242° (WSW) 2,956 9.8 -35.0°
